星链-6272 (STARLINK-6272 )

导读

STARLINK-6272是美国太空探索技术公司SpaceX星链星座的卫星,于2023年5月4日发射入轨,属于Starlink Gen 2批次,星链是低地球轨道卫星互联网星座,该星主要为全球范围内偏远地区、网络基础设施匮乏区域及商业用户提供高速卫星互联网接入服务。

Basic Information
目录编号:
56420
目录名称:
STARLINK-6272
国际标识:
2023-061AY
轨道中心:
EARTH
卫星名称:
星链-6272
卫星全名:
星链-6272 (STARLINK-6272 )
卫星状态:
在轨 (已飞行1137 天)
发射日期:
2023-05-04 UTC
国别 :
美国 (US)
星等 :
--
Orbit Information
数据来源 国际轨道数据 AOE轨道数据
星历时间 2026-06-14T18:01:58+0800
13小时前
查看轨道信息
2026-06-13T08:00:00+0800
1天前
查看轨道信息
半长轴 6861.2km 6861.163km
偏心率 0.0001441 0.0001169
轨道倾角 43.002° 43.002°
近地点辐角 269.455° 258.414°
升交点赤经 353.231° 1.240°
平近点角 90.614° 214.361°
近地点 482.074km 482.223km
远地点 484.052km 483.829km
周期 94.267分钟 94.266分钟
每日圈数 15.275756 15.275878
Detailed Information
固有亮度:
5
最大亮度:
2.5
卫星平台:
Starlink v1.5
覆盖范围:
全球
运营商:
太空探索技术公司
运营商所在国:
美国
制造商(研发单位):
太空探索技术公司
制造商所在国:
美国
使用方式:
暂无
Satellite Introduction
星链(Starlink)计划是由太空探索技术公司(SpaceX)提出的一个巨型低轨卫星互联网星座项目,计划在2019年至2024年间在太空搭建由约1.2万颗卫星组成的“星链”网络,其中1584颗将部署在地球上空550千米处的近地轨道,并从2020年开始工作。该卫星仍在工作。
2D Orbit Map
3D Orbit Map
Orbit Altitude Analysis Chart
Orbit Inclination Analysis Chart
Orbit Comprehensive Analysis Chart
View Comprehensive Chart